Regional Weather Roundup
Issued by NWS Huntsville, AL

Home | Current Version | Previous Version | Text Only | Print | Product List | Glossary On
Versions: 1 2 3 4 5 6 7 8 9 10 11 12 13 14 15 16 17 18 19 20 21 22 23 24 25 26 27 28 29 30 31 32 33 34 35 36 37 38 39 40 41 42 43 44 45 46 47 48 49 50
509
ASUS44 KHUN 250710
RWRHUN

WEATHER ROUNDUP FOR THE TENNESSEE VALLEY
NATIONAL WEATHER SERVICE HUNTSVILLE AL
200 AM CDT SAT MAR 25 2017

ALZ001>004-250800-
NORTHWEST ALABAMA

CITY           SKY/WX    TMP DP  RH WIND       PRES   REMARKS
COURTLAND HCN    N/A     64 N/A N/A S7          N/A
RUSSELLVILLE     N/A     63 N/A N/A MISG        N/A
SHOALS AIRPORT PTCLDY    66  55  67 S13       30.12F
SHOALS TVA RES   N/A     66 N/A N/A MISG        N/A
$$

ALZ005>007-016-250800-
NORTH CENTRAL ALABAMA

CITY           SKY/WX    TMP DP  RH WIND       PRES   REMARKS
CULLMAN AG STN   N/A     64 N/A N/A S3          N/A
DECATUR AP     PTCLDY    63  53  70 SE9       30.15S
HUNTSVILLE AP  PTCLDY    65  53  65 SE10      30.14F
MERIDIANVILLE  PTCLDY    64  48  55 SE9       30.15F
REDSTONE ARSN  PTCLDY    65  52  63 S9        30.14F
VINEMONT AP    FAIR      63  51  65 S7        30.18S
$$

ALZ008>010-250800-
NORTHEAST ALABAMA

CITY           SKY/WX    TMP DP  RH WIND       PRES   REMARKS
ALBERTVILLE    PTCLDY    63  55  77 S6        30.18R
FORT PAYNE     CLEAR     63  45  51 CALM      30.19S
SCOTTSBORO AP  CLOUDY    66  50  55 S7        30.19R
SCOTTSBORO HCN   N/A     66 N/A N/A MISG        N/A
VALLEY HEAD      N/A     64 N/A N/A MISG        N/A
$$

TNZ076-096-097-250800-
SOUTHEASTERN MIDDLE TENNESSEE

CITY           SKY/WX    TMP DP  RH WIND       PRES   REMARKS
TULLAHOMA      CLEAR     64  46  52 S10       30.16F
WINCHESTER     PTCLDY    64  50  59 S16       30.16F
$$

...SURROUNDING SITES...

CITY           SKY/WX    TMP DP  RH WIND       PRES   REMARKS
ATLANTA        CLOUDY    61  49  64 SE10      30.25F
ANNISTON       PTCLDY    67  50  54 S13G22    30.20S
BIRMINGHAM     NOT AVBL
CHATTANOOGA    MOCLDY    64  48  56 S6        30.20S
DALTON         MOCLDY    63  50  63 SE7       30.21S
GADSDEN        PTCLDY    65  51  60 S7        30.19S
GOLDEN TRNGL   MOCLDY    64  54  68 S12       30.07R
HALEYVILLE     CLOUDY    63  56  78 S10       30.16S
JACKSON TN     CLOUDY    68  58  70 S15G25    30.01S
MEMPHIS        CLOUDY    70  59  68 S20G25    29.98R
NASHVILLE      MOCLDY    62  51  67 SE7       30.10F
OXFORD MS      FAIR      66  57  72 S15G21    30.04S
ROME           MOCLDY    60  49  66 NW3       30.20S
SAVANNAH       PTCLDY    66  55  68 S13       30.05F
TUPELO         CLOUDY    66  56  70 SE18      30.06S
TUSCALOOSA     CLOUDY    65  55  70 S8        30.16R
$$

...GULF COAST WEATHER...

CITY           SKY/WX    TMP DP  RH WIND       PRES   REMARKS
GULFPORT       CLOUDY    70  65  84 SE16G24   30.10F
PASCAGOULA     CLOUDY    68  62  81 SE14      30.11F
MOBILE         MOCLDY    66  61  84 SE12      30.12F
GULF SHORES    MOSUNNY   67  64  91 SE13G20   30.13F
PENSACOLA      MOCLDY    67  62  84 SE13      30.14F
DESTIN         PTCLDY    69  62  78 SE12      30.17F
PANAMA CITY    MOCLDY    65  55  69 E14       30.19F
APPALACHICOLA  CLOUDY    68  62  81 SE13      30.20F
$$





USA.gov is the U.S. government's official web portal to all federal, state and local government web resources and services.